Find Yuri 3B

NORAD ID: 21668 Int'l Des: 1991-060 Owner: NASDA/TSCJ Country: J operational
HEOCIRCULAR

Live-Position

3D-Globus wird geladen...

Über Yuri 3B

Beschreibung wird geladen...

Nächste Überflüge

Passes for default location (London). Set your location on the main map for personalized predictions.

Höhenverlauf

Loading altitude history...

Zweizeiliger Elementsatz

1 21668U 91060A 26105.94311433 -.00000154 00000-0 00000-0 0 9992
2 21668 13.3954 357.4291 0002383 183.5536 12.2273 0.98793708128692
Epoch: 15. Apr. 2026 • Age: 27 hours

Aktueller Status

Höhe 36201.1 km
Geschwindigkeit 3.06 km/s
Subsatellitenpunkt -10.78°S, 2.91°E
Startdatum 25. Aug. 1991
Alter 34.6 years
Typ other

Technische Details

Klassifizierung Payload
Masse 570.00 kg
Trockenmasse 300.00 kg
Gesamtmasse 1115.00 kg
Länge 3.20 m
Durchmesser 1.30 m
Spannweite 15.00 m
Form Box + 2 Pan
Hersteller GEEW
Bus-Typ AS3000
Phasenstatus In Orbit
Besitzer/Staat NASDA/TSCJ/J

Most Searched